Wind_Speed
11 10 7 5 4 4 4 3 3 4 6 8 8 10 11 11 11 12 13 13 12 11 11 8 6 6 6 6 6 6 7 7 7 7 8 7 7 7 7 6 6 4 4 3
13 11 8 7 5 5 5 5 5 5 6 8 9 10 11 11 10 11 12 12 12 10 10 8 6 5 5 5 5 5 6 6 6 6 6 6 5 5 6 6 6 5 4 4
13 11 10 9 8 7 6 5 5 7 8 9 10 10 9 10 10 10 11 11 10 10 10 9 7 6 6 5 5 5 5 5 5 4 4 5 5 4 4 4 5 5 4 4
14 13 12 11 10 9 8 8 7 8 9 10 10 10 10 10 10 11 10 11 10 11 11 9 7 6 6 5 5 5 5 5 4 4 3 3 3 4 3 3 4 4 4 3
14 14 14 13 11 11 10 10 10 10 10 10 11 12 11 11 10 12 12 11 12 11 11 10 8 7 6 6 6 5 5 5 4 4 3 2 2 2 3 3 4 4 4 3
14 15 15 14 14 14 12 13 13 13 11 11 12 14 13 10 11 13 13 13 12 12 12 11 9 8 7 7 7 7 6 6 5 4 4 3 3 3 3 3 3 4 4 4
14 15 16 16 16 15 15 15 15 15 13 11 12 14 13 11 12 13 13 12 12 13 12 11 10 9 8 9 9 8 7 7 7 6 5 4 4 4 4 4 4 4 4 5
16 15 17 17 16 16 16 16 16 17 15 13 13 14 12 13 14 14 14 13 13 12 12 12 11 11 12 11 10 10 9 9 9 8 7 6 6 7 6 6 6 6 6 6
17 16 17 18 17 17 17 17 17 18 18 17 16 16 15 15 15 15 15 14 14 13 13 13 13 14 14 13 11 11 11 10 10 11 10 9 8 9 9 9 9 9 9 9
18 18 18 18 19 18 18 18 20 21 21 21 20 18 17 17 16 16 16 17 16 14 14 14 14 15 14 13 12 12 12 12 12 13 13 12 12 11 11 11 12 11 11 11
20 20 19 19 20 20 20 20 21 22 22 22 22 20 18 18 17 17 17 18 17 16 16 16 16 16 17 16 15 14 15 15 15 16 16 16 16 16 14 13 14 14 14 14
21 21 20 19 20 21 21 21 22 24 23 23 24 21 20 20 19 19 19 19 19 19 19 18 19 19 19 19 18 17 17 17 18 18 18 18 18 18 18 17 16 15 15 16
21 22 22 21 21 22 22 23 23 24 25 25 25 23 22 22 22 22 21 21 21 21 22 21 21 21 21 21 21 20 20 20 20 21 21 21 20 20 19 19 18 18 18 18
24 24 24 24 23 23 24 24 24 25 26 26 26 25 24 24 24 23 22 22 23 23 22 23 23 23 24 23 23 23 23 22 22 22 22 22 23 22 22 22 21 21 20 20
26 26 26 26 26 26 26 25 25 26 26 27 28 27 26 26 25 25 26 26 25 25 25 25 25 24 25 25 25 25 25 25 25 24 24 24 25 25 25 25 24 24 23 23
28 28 27 27 27 27 27 26 27 27 28 29 29 28 26 26 27 28 28 28 28 27 27 27 26 26 27 26 27 27 27 26 27 27 27 26 26 27 26 26 26 26 26 26
30 30 29 28 28 29 28 27 28 29 29 29 29 28 28 28 29 28 27 28 29 29 29 28 27 28 28 29 28 28 27 28 28 28 28 29 28 29 28 28 28 28 28 28
31 31 31 31 31 31 29 29 29 30 30 30 29 28 28 28 28 29 29 30 30 30 30 29 29 29 29 29 30 30 29 30 30 29 29 30 30 29 29 29 30 29 29 30
31 32 32 32 31 30 28 28 28 30 31 31 31 30 29 29 29 29 29 30 30 30 30 31 31 30 30 31 32 32 32 31 31 31 30 31 30 29 29 30 30 30 31 31
32 32 33 32 32 32 29 28 28 30 31 30 31 32 31 31 31 31 31 31 32 32 32 32 32 32 32 32 32 33 32 31 31 32 32 32 32 31 30 31 31 31 32 33
31 32 33 33 33 32 31 29 29 31 31 30 30 32 32 31 31 31 33 32 32 32 32 33 33 32 32 32 32 32 32 31 31 32 33 33 32 32 32 32 32 32 33 33
31 32 33 33 33 33 32 31 30 30 30 30 31 32 32 31 31 32 32 33 33 33 34 34 33 33 33 33 33 32 32 31 32 32 32 32 32 32 31 32 32 33 32 32
32 32 33 33 33 33 31 30 30 30 30 30 30 31 32 32 32 33 33 33 33 34 34 34 34 35 34 34 34 34 32 32 32 32 32 31 32 32 31 32 32 32 32 32
32 32 32 32 31 32 32 32 31 31 31 31 32 32 33 33 33 32 33 33 34 35 35 35 35 36 36 35 35 34 34 33 32 32 32 32 32 32 33 33 33 33 33 32
30 31 32 32 31 32 31 32 33 33 32 33 33 33 33 33 33 33 33 34 34 34 34 35 35 35 36 35 34 35 34 33 32 32 32 32 32 32 33 33 33 33 33 33
29 30 31 31 30 31 31 31 32 33 32 31 32 33 34 33 33 34 34 34 34 34 35 35 34 34 34 34 33 33 33 33 32 32 32 32 32 32 32 32 32 32 32 32
Wind_Direction
203 202 200 197 196 205 226 249 279 292 307 320 332 334 336 337 336 342 350 352 348 348 349 344 352 360 7 17 21 25 26 28 35 41 44 51 60 62 62 62 60 69 72 72
213 215 216 220 216 222 238 246 262 272 287 301 308 314 320 323 323 336 342 346 343 343 343 343 345 354 340 1 6 12 14 17 24 34 39 43 50 58 65 65 61 62 60 55
222 223 228 233 228 229 244 245 263 277 273 279 287 296 303 313 318 327 334 337 340 341 339 343 346 348 348 347 346 352 357 356 2 18 32 41 42 40 50 53 54 50 44 42
227 227 233 237 232 230 238 235 247 266 267 277 279 288 299 305 311 313 320 327 327 331 330 332 329 329 331 332 334 336 334 333 338 344 359 14 25 28 32 32 25 23 19 16
231 232 238 239 236 237 241 234 245 251 257 267 275 280 289 299 314 311 313 320 322 324 322 320 318 315 314 312 314 322 325 319 319 323 331 344 343 349 360 6 3 356 350 351
234 234 236 239 240 241 243 241 243 251 254 262 272 275 279 293 307 305 309 314 319 320 318 320 313 310 302 297 300 310 314 309 305 303 307 315 311 314 321 327 337 340 335 331
238 238 241 242 243 244 248 249 248 250 251 261 267 266 274 289 294 295 298 303 310 313 312 317 312 306 295 285 288 294 295 296 297 292 288 296 295 289 295 298 306 309 306 307
243 238 240 242 247 249 252 253 254 256 257 260 262 265 273 281 281 285 291 295 298 304 302 298 297 295 292 283 281 285 288 287 286 284 274 281 288 285 283 286 290 292 294 297
249 243 241 242 247 251 253 253 259 261 261 261 260 263 266 273 278 283 287 289 294 297 296 296 298 301 299 290 287 287 284 279 278 282 280 280 277 278 278 281 285 286 287 288
252 247 242 244 245 247 251 253 256 258 261 262 260 262 268 269 271 277 283 288 288 293 293 295 297 297 298 295 291 289 281 276 277 279 279 281 279 277 280 277 280 282 281 282
254 251 244 245 248 250 250 250 255 260 262 264 263 261 264 267 268 272 279 283 285 289 287 286 288 289 289 290 290 286 283 278 277 278 278 277 282 279 275 275 274 275 275 278
255 253 248 246 246 248 250 250 253 256 259 259 262 262 264 267 267 271 275 279 283 286 284 283 287 286 286 287 287 285 283 279 276 276 276 276 277 277 273 272 272 272 274 277
258 257 255 248 243 245 248 250 250 252 255 256 260 262 263 263 265 270 274 274 277 284 282 281 283 282 284 285 283 281 279 279 276 274 275 275 275 275 274 274 274 274 274 275
257 257 256 252 249 248 248 250 252 253 254 256 259 261 263 264 266 267 269 271 275 278 280 280 280 279 279 278 278 277 278 278 277 274 274 273 273 271 272 273 272 271 272 273
253 254 253 252 252 252 251 251 250 250 253 255 257 260 263 265 266 266 269 268 270 273 274 277 276 276 276 273 273 274 276 276 278 276 273 272 272 272 271 269 269 269 270 270
251 253 252 250 252 254 254 253 254 253 254 257 258 259 259 262 265 267 269 269 270 272 275 277 276 276 276 275 274 273 274 277 279 279 276 273 272 271 271 268 268 268 269 271
252 254 255 254 254 256 256 255 255 255 256 257 259 261 261 261 262 266 268 268 271 273 275 276 277 279 279 278 276 273 275 276 278 277 274 274 273 271 270 269 270 271 270 271
255 256 256 257 258 256 257 257 258 258 257 256 259 262 263 262 261 264 266 268 269 270 272 274 276 278 279 279 278 277 277 278 277 276 273 273 273 271 269 267 270 269 269 269
254 256 257 258 260 260 258 258 259 258 256 256 258 260 262 262 260 260 264 266 270 272 273 275 276 277 278 278 278 277 278 276 274 274 272 271 271 271 269 268 268 268 269 269
251 255 257 259 261 262 261 258 258 258 257 257 258 261 263 263 263 263 263 265 269 271 273 275 277 278 278 278 277 277 277 275 273 272 271 272 269 269 269 268 269 269 268 269
250 253 255 257 259 261 262 262 260 258 258 257 258 261 264 264 267 268 266 266 268 270 274 277 278 278 278 278 278 277 276 275 274 273 272 272 269 267 268 269 269 270 271 270
251 252 253 256 259 262 264 264 263 262 260 260 262 264 266 268 269 272 273 269 267 271 274 276 277 277 278 279 278 276 275 274 274 273 272 271 269 269 270 269 270 271 271 272
251 252 255 256 260 262 264 265 265 265 265 264 265 267 268 269 268 271 273 273 270 271 274 275 276 277 277 279 279 278 276 274 272 272 271 270 269 269 270 271 272 272 273 274
250 251 253 256 258 260 263 264 265 267 267 267 267 267 268 270 270 271 275 277 275 274 275 276 277 278 278 277 277 278 277 274 271 271 270 269 269 269 270 271 271 272 273 275
251 251 253 255 257 260 261 262 264 265 267 267 266 268 270 274 275 274 274 275 276 276 276 277 277 278 278 277 277 278 277 275 272 271 270 269 269 269 269 271 271 271 272 273
253 253 253 257 259 260 260 260 261 262 266 268 268 269 270 273 273 274 274 275 276 277 277 278 279 279 279 279 278 277 276 274 273 272 271 270 271 271 271 271 271 271 271 272
Height
5924 5925 5925 5926 5926 5927 5927 5928 5927 5927 5927 5927 5927 5926 5926 5926 5924 5924 5923 5922 5921 5920 5919 5917 5916 5916 5914 5914 5914 5913 5912 5911 5910 5909 5908 5907 5907 5906 5906 5905 5905 5905 5904 5904
5922 5923 5924 5923 5924 5925 5925 5926 5926 5926 5926 5926 5925 5925 5925 5925 5924 5923 5922 5922 5920 5919 5918 5917 5916 5915 5913 5913 5913 5913 5912 5911 5910 5909 5908 5908 5907 5906 5906 5906 5905 5905 5905 5904
5919 5922 5921 5922 5922 5923 5923 5924 5924 5925 5924 5924 5924 5924 5924 5923 5923 5922 5922 5921 5920 5918 5917 5916 5916 5915 5914 5913 5913 5912 5911 5911 5910 5909 5908 5908 5907 5906 5906 5906 5905 5905 5904 5904
5916 5918 5919 5919 5920 5920 5921 5922 5922 5922 5922 5921 5922 5921 5921 5921 5921 5921 5920 5920 5918 5917 5916 5915 5915 5914 5914 5913 5912 5911 5911 5910 5909 5909 5908 5907 5907 5906 5906 5906 5905 5905 5904 5903
5913 5915 5916 5916 5917 5918 5918 5920 5920 5919 5919 5919 5919 5919 5919 5918 5918 5918 5918 5917 5916 5915 5914 5913 5913 5913 5912 5912 5911 5910 5910 5909 5908 5908 5907 5907 5906 5906 5906 5905 5905 5904 5904 5903
5910 5911 5912 5913 5914 5915 5915 5916 5917 5917 5917 5917 5917 5916 5916 5916 5916 5915 5915 5915 5913 5912 5911 5910 5910 5910 5910 5910 5910 5909 5909 5908 5907 5907 5906 5906 5905 5905 5905 5904 5903 5903 5903 5902
5907 5907 5909 5910 5911 5912 5913 5913 5914 5914 5914 5915 5914 5913 5914 5914 5913 5912 5912 5912 5911 5910 5908 5907 5908 5908 5908 5907 5907 5907 5906 5906 5906 5905 5905 5905 5904 5903 5903 5903 5902 5902 5901 5901
5902 5904 5905 5906 5907 5908 5909 5910 5910 5910 5910 5911 5910 5909 5911 5910 5909 5908 5908 5908 5908 5908 5907 5905 5905 5905 5905 5904 5904 5904 5904 5904 5904 5903 5903 5902 5902 5901 5901 5901 5900 5900 5899 5899
5897 5900 5901 5902 5903 5904 5904 5905 5906 5906 5905 5906 5906 5906 5906 5905 5905 5904 5904 5904 5904 5904 5903 5902 5902 5902 5902 5901 5901 5901 5901 5901 5901 5900 5899 5899 5899 5899 5899 5898 5898 5898 5897 5896
5892 5894 5896 5897 5898 5899 5900 5901 5901 5901 5900 5900 5901 5901 5901 5901 5901 5901 5901 5900 5900 5899 5900 5899 5899 5899 5899 5898 5898 5898 5897 5897 5897 5897 5897 5896 5896 5895 5895 5895 5895 5894 5894 5893
5887 5889 5891 5892 5892 5893 5895 5895 5895 5895 5895 5895 5895 5898 5897 5897 5897 5897 5897 5896 5896 5896 5896 5896 5896 5896 5895 5895 5894 5893 5893 5893 5893 5893 5893 5893 5892 5891 5890 5890 5890 5890 5890 5889
5881 5883 5885 5887 5888 5888 5888 5889 5889 5890 5889 5889 5889 5893 5892 5892 5892 5891 5892 5891 5891 5891 5891 5890 5891 5891 5891 5890 5889 5889 5889 5889 5889 5888 5888 5887 5887 5886 5885 5884 5884 5884 5884 5884
5876 5877 5878 5880 5883 5882 5882 5883 5883 5883 5883 5883 5884 5887 5886 5886 5886 5886 5886 5886 5885 5885 5884 5884 5885 5885 5885 5885 5884 5884 5883 5883 5883 5883 5882 5882 5881 5881 5880 5879 5879 5879 5879 5879
5870 5870 5872 5874 5874 5875 5875 5876 5876 5876 5876 5877 5878 5879 5879 5879 5880 5880 5880 5880 5879 5879 5878 5879 5878 5878 5878 5878 5878 5877 5877 5876 5876 5876 5876 5875 5874 5874 5874 5873 5873 5873 5873 5873
5862 5863 5864 5865 5867 5867 5868 5869 5869 5869 5869 5870 5871 5871 5872 5873 5873 5873 5873 5872 5872 5872 5872 5872 5872 5871 5871 5870 5870 5870 5870 5869 5868 5868 5868 5868 5867 5866 5866 5866 5866 5866 5866 5866
5854 5855 5856 5858 5859 5860 5861 5862 5862 5863 5863 5863 5863 5864 5865 5866 5866 5866 5865 5865 5865 5865 5864 5864 5864 5864 5863 5862 5862 5862 5862 5862 5861 5860 5859 5859 5859 5859 5858 5858 5857 5858 5858 5858
5846 5848 5848 5850 5851 5852 5853 5854 5854 5855 5855 5855 5855 5857 5857 5858 5858 5858 5858 5858 5857 5857 5856 5856 5856 5856 5855 5854 5853 5853 5853 5853 5852 5851 5851 5850 5850 5850 5850 5850 5849 5850 5850 5850
5839 5840 5840 5841 5843 5844 5848 5846 5846 5846 5847 5847 5848 5848 5849 5849 5849 5850 5850 5850 5850 5849 5849 5848 5848 5847 5847 5846 5845 5845 5844 5844 5843 5842 5841 5841 5840 5840 5840 5841 5841 5841 5841 5841
5830 5831 5831 5833 5833 5835 5838 5838 5837 5837 5838 5839 5840 5840 5841 5841 5841 5842 5841 5841 5841 5840 5840 5839 5838 5838 5837 5837 5836 5835 5835 5835 5834 5833 5833 5832 5831 5831 5831 5832 5832 5832 5832 5832
5822 5822 5823 5823 5824 5825 5829 5829 5829 5830 5829 5832 5832 5832 5832 5832 5833 5834 5833 5832 5832 5831 5830 5829 5829 5828 5828 5827 5826 5826 5825 5824 5824 5824 5823 5823 5823 5823 5823 5823 5823 5823 5823 5822
5813 5814 5814 5815 5814 5816 5818 5819 5820 5821 5822 5823 5824 5824 5824 5823 5823 5823 5823 5822 5822 5822 5821 5821 5820 5819 5818 5817 5816 5816 5815 5815 5814 5814 5814 5813 5813 5813 5814 5814 5814 5814 5813 5812
5803 5805 5806 5806 5807 5810 5810 5810 5811 5812 5813 5813 5814 5815 5815 5815 5814 5814 5813 5813 5813 5812 5812 5812 5811 5809 5808 5807 5807 5806 5806 5805 5805 5805 5805 5804 5804 5804 5804 5804 5804 5804 5804 5803
5794 5796 5797 5798 5801 5801 5802 5802 5802 5803 5804 5805 5805 5806 5806 5806 5806 5805 5805 5804 5803 5803 5803 5802 5801 5800 5798 5797 5796 5796 5796 5795 5795 5795 5795 5795 5795 5795 5794 5795 5795 5794 5794 5794
5786 5787 5788 5790 5791 5792 5793 5793 5794 5795 5796 5796 5796 5796 5797 5796 5797 5796 5796 5795 5794 5794 5794 5793 5792 5790 5788 5787 5786 5785 5785 5785 5785 5785 5785 5785 5785 5785 5785 5785 5785 5785 5785 5785
5778 5779 5780 5781 5783 5783 5784 5785 5786 5787 5787 5787 5787 5787 5787 5787 5786 5786 5786 5786 5785 5784 5783 5782 5781 5780 5778 5776 5775 5775 5774 5774 5775 5775 5775 5775 5776 5776 5776 5776 5775 5775 5775 5775
5769 5770 5772 5773 5774 5775 5776 5777 5777 5778 5779 5779 5779 5779 5778 5778 5777 5776 5776 5776 5775 5774 5773 5772 5770 5769 5767 5766 5765 5765 5764 5764 5764 5765 5765 5765 5766 5765 5765 5765 5765 5765 5765 5765